Tracking 31027 objects as of 19-Jul-2025
HD Live streaming from Space Station
objects crossing your sky now

SATELIOT_1

Track SATELIOT_1 now!
10-day predictions


NORAD ID: 60550
Int'l Code: 2024-149CL
Perigee: 580.4 km
Apogee: 591.9 km
Inclination: 97.7 °
Period: 96.3 minutes
Semi major axis: 6957 km
RCS: Unknown
Launch date: August 16, 2024
Source: Spain (SPN)
Launch site: AIR FORCE WESTERN TEST RANGE (AFWTR)
Your satellite tracking list
DELTA 1 DEB
Track 1 satellite(s)




NASA's NSSDC Master Catalog

Two Line Element Set (TLE):
1 60550U 24149CL  25199.18315822  .00001304  00000-0  12100-3 0  9997
2 60550  97.7092 275.4603 0008253 109.8340 250.3771 14.96094758 50094
Source of the keplerian elements: AFSPC